Bainbridge, GA

2:29 PM EDT on March 29, 2017 (GMT -0400)
Decatur County Industrial

Weather History for KBGE - December, 2012

Change the Weather History Date:

Wednesday, December 26, 2012

  Actual Average (KABY) Record (KABY)
Temperature  
Mean Temperature 54 °F -  
Max Temperature 69 °F 57 °F 82 °F (2015)
Min Temperature 39 °F 34 °F 10 °F (1983)
Degree Days  
Heating Degree Days 11    
Growing Degree Days 4 (Base 50)    
Moisture  
Dew Point 43 °F    
Average Humidity 72    
Maximum Humidity 94    
Minimum Humidity 58    
Precipitation  
Precipitation 0.00 in - - ()
Sea Level Pressure  
Sea Level Pressure 29.84 in    
Wind  
Wind Speed 16 mph (West)    
Max Wind Speed 29 mph    
Max Gust Speed 36 mph    
Visibility 10 miles    
Events Rain , Thunderstorm    
Averages and records for this station are not official NWS values.
T = Trace of Precipitation, MM = Missing Value Source: NWS Daily Summary

Daily Weather History Graph

Daily Weather History Graph

Search for Another Location

Airport or City:

Trip Planner

Search our weather history database for the weather conditions in past years. The results will help you decide how hot, cold, wet, or windy it might be!

Date:

Astronomy

Dec. 26, 2012 Rise Set
Actual Time 7:35 AM EST 5:43 PM EST
Civil Twilight 7:08 AM EST 6:10 PM EST
Nautical Twilight 6:38 AM EST 6:40 PM EST
Astronomical Twilight 6:08 AM EST 7:10 PM EST
Moon 4:35 PM EST (12/26) 5:59 AM EST (12/26)
Length of Visible Light 11h 02m
Length of Day
10h 08m
Waxing Gibbous, 97% of the Moon is Illuminated
Dec 26
Waxing Gibbous
Dec 28
Full
Jan 4
Last Quarter
Jan 11
New
Jan 18
First Quarter

Hourly Weather History & Observations

Time (EST) Temp. Windchill Dew Point Humidity Pressure Visibility Wind Dir Wind Speed Gust Speed Precip Events Conditions
12:15 AM 68.0 °F - 60.8 °F 78% 29.71 in 10.0 mi South 13.8 mph 24.2 mph N/A   Scattered Clouds
12:35 AM 68.0 °F - 60.8 °F 78% 29.68 in 10.0 mi South 19.6 mph 25.3 mph N/A   Clear
12:55 AM 68.0 °F - 60.8 °F 78% 29.67 in 10.0 mi SSE 17.3 mph 25.3 mph N/A   Clear
1:15 AM 68.0 °F - 62.6 °F 83% 29.66 in 10.0 mi South 20.7 mph 25.3 mph N/A Thunderstorm Scattered Clouds
1:35 AM 69.8 °F - 64.4 °F 83% 29.66 in 10.0 mi SSE 16.1 mph 26.5 mph N/A Thunderstorm Mostly Cloudy
1:55 AM 69.8 °F - 64.4 °F 83% 29.65 in 10.0 mi South 12.7 mph 28.8 mph N/A Thunderstorm Scattered Clouds
2:15 AM 69.8 °F - 64.4 °F 83% 29.65 in 10.0 mi South 19.6 mph 27.6 mph N/A   Mostly Cloudy
2:35 AM 69.8 °F - 64.4 °F 83% 29.65 in 7.0 mi South 17.3 mph 24.2 mph N/A Rain Rain
2:55 AM 69.8 °F - 66.2 °F 88% 29.64 in 10.0 mi South 17.3 mph 26.5 mph N/A Rain Light Rain
3:15 AM 69.8 °F - 66.2 °F 88% 29.63 in 10.0 mi South 19.6 mph 29.9 mph N/A Rain , Thunderstorm Light Thunderstorms and Rain
3:35 AM 69.8 °F - 68.0 °F 94% 29.64 in 5.0 mi SSW 17.3 mph 23.0 mph N/A Rain , Thunderstorm Light Thunderstorms and Rain
3:55 AM 62.6 °F - 55.4 °F 77% 29.67 in 10.0 mi West 17.3 mph 24.2 mph N/A Rain , Thunderstorm Light Thunderstorms and Rain
4:15 AM 60.8 °F - 53.6 °F 77% 29.67 in 10.0 mi WSW 12.7 mph 21.9 mph N/A   Mostly Cloudy
4:35 AM 59.0 °F - 51.8 °F 77% 29.66 in 10.0 mi WSW 9.2 mph - N/A Thunderstorm Overcast
5:15 AM 59.0 °F - 50.0 °F 72% 29.67 in 10.0 mi WSW 9.2 mph - N/A Rain , Thunderstorm Light Thunderstorms and Rain
5:35 AM 59.0 °F - 51.8 °F 77% 29.67 in 10.0 mi WSW 9.2 mph - N/A   Mostly Cloudy
5:55 AM 59.0 °F - 51.8 °F 77% 29.67 in 10.0 mi WSW 8.1 mph - N/A   Scattered Clouds
6:15 AM 57.2 °F - 50.0 °F 77% 29.68 in 10.0 mi WSW 9.2 mph - N/A   Scattered Clouds
6:35 AM 57.2 °F - 51.8 °F 82% 29.69 in 10.0 mi WSW 9.2 mph - N/A   Mostly Cloudy
6:55 AM 57.2 °F - 50.0 °F 77% 29.70 in 10.0 mi WSW 11.5 mph 18.4 mph N/A   Mostly Cloudy
7:15 AM 57.2 °F - 50.0 °F 77% 29.69 in 10.0 mi WSW 12.7 mph - N/A   Scattered Clouds
7:35 AM 57.2 °F - 50.0 °F 77% 29.71 in 10.0 mi WSW 13.8 mph 18.4 mph N/A   Clear
8:15 AM 57.2 °F - 50.0 °F 77% 29.72 in 10.0 mi West 12.7 mph 20.7 mph N/A   Clear
8:35 AM 57.2 °F - 50.0 °F 77% 29.72 in 10.0 mi West 18.4 mph 21.9 mph N/A   Scattered Clouds
8:55 AM 57.2 °F - 48.2 °F 72% 29.74 in 10.0 mi West 19.6 mph 28.8 mph N/A   Scattered Clouds
9:15 AM 57.2 °F - 50.0 °F 77% 29.74 in 10.0 mi West 17.3 mph 25.3 mph N/A   Scattered Clouds
9:35 AM 57.2 °F - 48.2 °F 72% 29.76 in 10.0 mi West 18.4 mph 28.8 mph N/A   Scattered Clouds
9:55 AM 57.2 °F - 46.4 °F 67% 29.77 in 10.0 mi West 20.7 mph 29.9 mph N/A   Scattered Clouds
10:15 AM 57.2 °F - 46.4 °F 67% 29.79 in 10.0 mi West 24.2 mph 35.7 mph N/A   Scattered Clouds
10:35 AM 53.6 °F - 44.6 °F 72% 29.82 in 10.0 mi West 21.9 mph 33.4 mph N/A   Mostly Cloudy
11:15 AM 50.0 °F - 37.4 °F 62% 29.85 in 10.0 mi West 24.2 mph 31.1 mph N/A   Clear
11:35 AM 48.2 °F - 35.6 °F 62% 29.86 in 10.0 mi West 24.2 mph 35.7 mph N/A   Clear
11:55 AM 50.0 °F - 35.6 °F 58% 29.87 in 10.0 mi West 28.8 mph 35.7 mph N/A   Clear
12:15 PM 46.4 °F 37.7 °F 33.8 °F 62% 29.87 in 10.0 mi WNW 26.5 mph 34.5 mph N/A   Clear
12:35 PM 50.0 °F - 35.6 °F 58% 29.87 in 10.0 mi WNW 23.0 mph 31.1 mph N/A   Mostly Cloudy
12:55 PM 46.4 °F 38.5 °F 33.8 °F 62% 29.87 in 10.0 mi WNW 21.9 mph 34.5 mph N/A   Mostly Cloudy
1:15 PM 44.6 °F 36.1 °F 33.8 °F 66% 29.88 in 10.0 mi West 21.9 mph 28.8 mph N/A   Mostly Cloudy
1:35 PM 46.4 °F 38.7 °F 33.8 °F 62% 29.87 in 10.0 mi WNW 20.7 mph 31.1 mph N/A   Mostly Cloudy
1:55 PM 46.4 °F 39.2 °F 33.8 °F 62% 29.87 in 10.0 mi WNW 18.4 mph 28.8 mph N/A   Overcast
2:15 PM 46.4 °F 38.1 °F 33.8 °F 62% 29.88 in 10.0 mi West 24.2 mph 29.9 mph N/A   Overcast
2:35 PM 44.6 °F 36.9 °F 33.8 °F 66% 29.89 in 10.0 mi WNW 18.4 mph 27.6 mph N/A   Overcast
2:55 PM 46.4 °F 38.7 °F 33.8 °F 62% 29.89 in 10.0 mi WNW 20.7 mph 28.8 mph N/A   Overcast
3:15 PM 46.4 °F 39.2 °F 33.8 °F 62% 29.90 in 10.0 mi WNW 18.4 mph 26.5 mph N/A   Overcast
3:35 PM 46.4 °F 40.1 °F 33.8 °F 62% 29.90 in 10.0 mi WNW 15.0 mph - N/A   Overcast
4:15 PM 44.6 °F 36.9 °F 33.8 °F 66% 29.92 in 10.0 mi WNW 18.4 mph 24.2 mph N/A   Mostly Cloudy
4:35 PM 46.4 °F 39.2 °F 33.8 °F 62% 29.93 in 10.0 mi WNW 18.4 mph 27.6 mph N/A   Overcast
4:55 PM 44.6 °F 37.2 °F 33.8 °F 66% 29.95 in 10.0 mi WNW 17.3 mph 24.2 mph N/A   Overcast
5:15 PM 44.6 °F 38.1 °F 33.8 °F 66% 29.95 in 10.0 mi NW 13.8 mph 24.2 mph N/A   Overcast
5:35 PM 44.6 °F 38.4 °F 33.8 °F 66% 29.95 in 10.0 mi NW 12.7 mph - N/A   Mostly Cloudy
6:15 PM 42.8 °F 36.2 °F 33.8 °F 70% 29.97 in 10.0 mi WNW 12.7 mph 18.4 mph N/A   Clear
6:35 PM 42.8 °F 37.0 °F 33.8 °F 70% 29.98 in 10.0 mi WNW 10.4 mph - N/A   Scattered Clouds
6:55 PM 42.8 °F 35.1 °F 32.0 °F 66% 30.00 in 10.0 mi NW 16.1 mph 24.2 mph N/A   Scattered Clouds
7:15 PM 41.0 °F 32.8 °F 32.0 °F 70% 30.01 in 10.0 mi NW 16.1 mph 23.0 mph N/A   Scattered Clouds
7:35 PM 41.0 °F 33.9 °F 32.0 °F 70% 30.02 in 10.0 mi NW 12.7 mph 21.9 mph N/A   Mostly Cloudy
7:55 PM 41.0 °F 33.9 °F 32.0 °F 70% 30.02 in 10.0 mi NW 12.7 mph 21.9 mph N/A   Mostly Cloudy
8:15 PM 41.0 °F 33.9 °F 32.0 °F 70% 30.03 in 10.0 mi NW 12.7 mph 18.4 mph N/A   Overcast
8:55 PM 41.0 °F 35.8 °F 33.8 °F 76% 30.03 in 10.0 mi NNW 8.1 mph - N/A   Overcast
9:15 PM 41.0 °F 35.2 °F 33.8 °F 76% 30.04 in 10.0 mi NNW 9.2 mph - N/A   Scattered Clouds
9:35 PM 39.2 °F 34.2 °F 32.0 °F 75% 30.05 in 10.0 mi WNW 6.9 mph - N/A   Scattered Clouds
9:55 PM 41.0 °F 35.2 °F 32.0 °F 70% 30.05 in 10.0 mi NW 9.2 mph - N/A   Mostly Cloudy
10:15 PM 41.0 °F 34.7 °F 32.0 °F 70% 30.06 in 10.0 mi WNW 10.4 mph - N/A   Overcast
10:35 PM 41.0 °F 33.9 °F 33.8 °F 76% 30.07 in 10.0 mi NW 12.7 mph - N/A   Mostly Cloudy
10:55 PM 41.0 °F 33.5 °F 33.8 °F 76% 30.08 in 10.0 mi NW 13.8 mph 20.7 mph N/A   Overcast
11:15 PM 41.0 °F 33.5 °F 33.8 °F 76% 30.07 in 10.0 mi NW 13.8 mph 23.0 mph N/A   Mostly Cloudy
11:35 PM 41.0 °F 33.5 °F 33.8 °F 76% 30.07 in 10.0 mi NW 13.8 mph 19.6 mph N/A   Mostly Cloudy
11:55 PM 41.0 °F 35.2 °F 32.0 °F 70% 30.08 in 10.0 mi NW 9.2 mph - N/A   Mostly Cloudy